Location: Diebersbach
(48.5163°N, 8.0558°E)
Time: 20:30:53
(UTC+00:00)

USA 229 - Pass Details

Date: 24 October 2021
Orbit: 946 x 1266 km, 63.4° (Epoch: 25 November)

Event Time Altitude Azimuth Distance (km) Brightness Sun altitude
Exits shadow 01:52:41 24° 123° (ESE) 2,272 5.5 -40.4°
Drops below altitude 10° 01:55:30 10° 128° (SE) 3,202 6.3 -40.0°
Sets 01:58:22 0° 131° (SE) 4,189 7.0 -39.6°
